Tracking 17140 objects as of 30-May-2015
HD Live streaming from Space Station

INTELSAT 2-F4

Track INTELSAT 2-F4 now!
INTELSAT 2-F4 is classified as:


NORAD ID: 2969
Int'l Code: 1967-094A
Perigee: 35,685.4 km
Apogee: 35,841.3 km
Inclination: 5.2 °
Period: 1,434.5 minutes
Semi major axis: 42134 km
RCS: 2.5118 m2 (large)
Launch date: September 28, 1967
Source: International Telecommunications Satellite Organization (ITSO)
Your satellite tracking list
Your tracking list is empty





NASA's NSSDC Master Catalog

Two Line Element Set (TLE):
1 02969U 67094A   15149.53339402 -.00000091  00000-0  00000+0 0  9991
2 02969 005.2079 302.7585 0018489 206.6798 181.1348 01.00380298 76313

Source of the keplerian elements: AFSPC

N2YO: 331